Location: Aragnouet
(42.7874°N, 0.2165°E)
Time: 21:32:24
(UTC+00:00)

CZ-4C R/B - Pass Details

Date: 09 April 2020
Orbit: 637 x 1364 km, 63.4° (Epoch: 25 May)

Event Time Altitude Azimuth Distance (km) Brightness Sun altitude
Rises 20:49:58 0° 326° (NNW) 3,738 6.8 -23.3°
Reaches altitude 10° 20:52:45 10° 337° (NNW) 2,898 5.8 -23.7°
Maximum altitude 20:58:58 32° 39° (NE) 1,914 4.0 -24.6°
Enters shadow 21:01:47 26° 74° (ENE) 2,242 4.1 -25.0°
